Regional Weather Roundup
Issued by NWS Little Rock, AR

Home | Current Version | Previous Version | Graphics & Text | Print | Product List | Glossary On
Versions: 1 2 3 4 5 6 7 8 9 10 11 12 13 14 15 16 17 18 19 20 21 22 23 24 25 26 27 28 29 30 31 32 33 34 35 36 37 38 39 40 41 42 43 44 45 46 47 48 49 50
000
ASUS44 KLZK 031005
RWRLZK

WEATHER ROUNDUP FOR ARKANSAS
NATIONAL WEATHER SERVICE LITTLE ROCK AR
500 AM CDT FRI JUL 03 2015

NOTE: "FAIR" INDICATES FEW OR NO CLOUDS BELOW 12,000 FEET WITH NO
SIGNIFICANT WEATHER AND/OR OBSTRUCTIONS TO VISIBILITY.

ARZ001-003-010-029-031100-
NORTHWEST ARKANSAS

CITY           SKY/WX    TMP DP  RH WIND       PRES   REMARKS
FAYETTEVILLE   PTCLDY    68  68 100 S6        29.92S
FORT SMITH     LGT RAIN  75  71  87 W7        29.89F
HARRISON       PTCLDY    67  66  97 W3        29.92S
BENTONVILLE    PTCLDY   N/A N/A N/A SW5       29.92S
ROGERS         PTCLDY    67  65  93 S7        29.93S
SILOAM SPGS    CLOUDY    68  63  83 CALM        N/A
HIGHFILL       CLEAR     68  67  96 CALM      29.92S
$$

ARZ004-005-016-031100-
NORTH CENTRAL ARKANSAS

CITY           SKY/WX    TMP DP  RH WIND       PRES   REMARKS
BATESVILLE     CLOUDY    72  70  94 SW3       29.90S
FLIPPIN        PTCLDY    70  66  88 CALM      29.89R
MTN HOME       PTCLDY    68  67  96 CALM      29.90S
$$

ARZ040-041-031100-
WEST CENTRAL ARKANSAS

CITY           SKY/WX    TMP DP  RH WIND       PRES   REMARKS
MENA           CLOUDY    77  73  88 SW9       29.93F
MOUNT IDA      LGT RAIN  75  72  90 CALM      29.90F
$$

ARZ009-017-025-026-028-031100-
NORTHEAST ARKANSAS

CITY           SKY/WX    TMP DP  RH WIND       PRES   REMARKS
JONESBORO      MOCLDY    71  70  96 W7        29.87S
NEWPORT        CLOUDY    74  72  93 SW6       29.90S
WALNUT RIDGE   CLEAR     70  66  88 SW10      29.86S
BLYTHEVILLE    MOCLDY    72  71  97 SW5       29.87S
$$

ARZ022-023-033-042-044-031100-
CENTRAL ARKANSAS

CITY           SKY/WX    TMP DP  RH WIND       PRES   REMARKS
LITTLE ROCK    LGT RAIN  77  72  84 SW5       29.91R
N LITTLE ROCK    N/A     75  74  96 SW6       29.91R
JACKSONVILLE   CLOUDY    76  74  94 W6        29.90R
SEARCY         CLOUDY    74  71  91 CALM      29.92R
HOT SPRINGS    LGT RAIN  76  73  91 W9        29.93R
RUSSELLVILLE   CLOUDY    74  71  91 N3        29.90R
CLINTON        FAIR      72  72 100 CALM      29.92R
$$

ARZ036-031100-
EAST ARKANSAS

CITY           SKY/WX    TMP DP  RH WIND       PRES   REMARKS
WEST MEMPHIS   CLOUDY    72  72 100 CALM      29.88R
$$

ARZ050-053-066-070-073-031100-
SOUTHWEST ARKANSAS

CITY           SKY/WX    TMP DP  RH WIND       PRES   REMARKS
ARKADELPHIA    FAIR      78  76  94 SW5       29.93R
CAMDEN         CLOUDY    77  70  78 MISG      29.93R
TEXARKANA      CLOUDY    78  73  84 SW14      29.94R
EL DORADO      MOCLDY    76  72  87 S9        29.95S
DE QUEEN       CLOUDY    76  73  91 CALM      29.90S
$$

ARZ056-057-069-031100-
SOUTHEAST ARKANSAS

CITY           SKY/WX    TMP DP  RH WIND       PRES   REMARKS
PINE BLUFF     HVY RAIN  77  74  90 CALM      29.93R FOG
STUTTGART      CLOUDY    75  72  88 SW12      29.90R
MONTICELLO     CLOUDY    79  74  84 SW10      29.94R

$$





USA.gov is the U.S. government's official web portal to all federal, state and local government web resources and services.